Location: Unspecified
(0.0000°N, 0.0000°E)
Time: 13:05:26
(UTC+00:00)

Kosmos-1092 - Visible Passes

Search period start: 08 December 2023 00:00
Search period end: 18 December 2023 00:00
Orbit: 958 x 1002 km, 82.9° (Epoch: 07 December)

Date Brightness Start Highest point End Pass type
(mag) Time Alt. Az. Time Alt. Az. Time Alt. Az.
08 Dec 7.8 19:44:19 10° SSW 19:50:26 49° W 19:55:56 13° NNW visible
09 Dec 7.8 18:26:25 10° SSE 18:31:53 30° E 18:37:19 10° NNE visible
09 Dec 9.2 20:12:20 10° SW 20:17:02 22° W 20:21:42 10° NW visible
10 Dec 7.0 18:52:11 10° S 18:58:30 68° E 19:04:47 10° N visible
11 Dec 7.7 19:18:55 10° SSW 19:25:07 55° W 19:31:16 10° N visible
12 Dec 9.1 19:46:44 10° SW 19:51:43 24° W 19:56:40 10° NW visible
13 Dec 7.1 18:26:56 10° S 18:33:12 61° E 18:39:24 10° NNE visible
14 Dec 7.6 18:53:33 10° SSW 18:59:49 61° W 19:06:01 10° N visible
15 Dec 9.0 19:21:11 10° SW 19:26:25 27° W 19:31:37 10° NNW visible
16 Dec 9.9 19:51:23 10° WSW 19:53:01 11° W 19:54:39 10° WNW visible
17 Dec 9.5 05:23:49 10° NE 05:28:25 22° E 05:33:03 10° SE visible
17 Dec 7.5 18:28:11 10° S 18:34:30 69° W 18:40:45 10° N visible
